SAS285 ESGG-EDDB

Flight info

Callsign SAS285
Flight time 0h 59m
Altitude 39000
Route TOPLA L996 ATRIB DCT SALLO DCT USEDU Z14 BEKBA T280 KETAP
Aircraft A320/M-SDE3FGHIJ1RWXYZ/ALB1

Departure

Time 2026-05-07 17:05
Airport Göteborg Landvetter Airport (ESGG)

Arrival

Time 2026-05-07 18:04
Airport Berlin Brandenburg Airport (EDDB)
Time Latitude Longitude Altitude Speed Heading
2026-05-07 16:33 57.67005 12.29534 529 ft 0 kts 116°
2026-05-07 16:55 57.67006 12.29531 529 ft 1 kts 116°
2026-05-07 16:55 57.67013 12.29503 529 ft 3 kts 116°
2026-05-07 16:55 57.67022 12.29469 529 ft 3 kts 116°
2026-05-07 16:56 57.67030 12.29440 529 ft 3 kts 110°
2026-05-07 16:56 57.67032 12.29412 529 ft 3 kts 55°
2026-05-07 16:56 57.67003 12.29374 529 ft 1 kts 26°
2026-05-07 16:57 57.67001 12.29372 529 ft 0 kts 26°
2026-05-07 17:00 57.67008 12.29379 529 ft 5 kts 26°
2026-05-07 17:00 57.67075 12.29438 529 ft 16 kts 25°
2026-05-07 17:00 57.67197 12.29551 531 ft 21 kts 26°
2026-05-07 17:00 57.67334 12.29671 532 ft 17 kts 15°
2026-05-07 17:01 57.67383 12.29580 532 ft 11 kts 301°
2026-05-07 17:01 57.67451 12.29556 533 ft 12 kts 25°
2026-05-07 17:01 57.67463 12.29566 533 ft 0 kts 18°
2026-05-07 17:01 57.67462 12.29533 533 ft 6 kts 261°
2026-05-07 17:02 57.67438 12.29423 532 ft 11 kts 241°
2026-05-07 17:02 57.67457 12.29276 532 ft 5 kts 284°
2026-05-07 17:02 57.67457 12.29275 532 ft 0 kts 284°
2026-05-07 17:03 57.67458 12.29193 531 ft 16 kts 266°
2026-05-07 17:04 57.67345 12.28944 530 ft 24 kts 207°
2026-05-07 17:04 57.67010 12.28635 529 ft 89 kts 206°
2026-05-07 17:04 57.66546 12.28215 524 ft 129 kts 206°
2026-05-07 17:04 57.65624 12.27337 657 ft 163 kts 211°
2026-05-07 17:05 57.64613 12.26371 1393 ft 164 kts 209°
2026-05-07 17:05 57.63584 12.25371 2006 ft 173 kts 211°
2026-05-07 17:05 57.62467 12.24261 2395 ft 192 kts 208°
2026-05-07 17:05 57.61213 12.23112 2836 ft 210 kts 202°
2026-05-07 17:06 57.59706 12.22444 3195 ft 236 kts 187°
2026-05-07 17:06 57.57991 12.22273 3803 ft 256 kts 180°
2026-05-07 17:06 57.56188 12.22245 4747 ft 261 kts 178°
2026-05-07 17:06 57.54386 12.22707 5746 ft 264 kts 166°
2026-05-07 17:07 57.52601 12.23387 6710 ft 267 kts 169°
2026-05-07 17:07 57.50749 12.23965 7602 ft 272 kts 172°
2026-05-07 17:07 57.48860 12.24490 8491 ft 277 kts 172°
2026-05-07 17:07 57.46931 12.25001 9379 ft 282 kts 173°
2026-05-07 17:08 57.44966 12.25519 10219 ft 288 kts 174°
2026-05-07 17:08 57.42970 12.26046 11043 ft 292 kts 174°
2026-05-07 17:08 57.40933 12.26584 11691 ft 304 kts 173°
2026-05-07 17:08 57.38760 12.27158 11980 ft 326 kts 173°
2026-05-07 17:09 57.36479 12.27763 12565 ft 335 kts 173°
2026-05-07 17:09 57.34154 12.28386 13286 ft 340 kts 173°
2026-05-07 17:09 57.31831 12.29011 14002 ft 344 kts 173°
2026-05-07 17:09 57.29442 12.29652 14665 ft 348 kts 173°
2026-05-07 17:10 57.27034 12.30297 15331 ft 352 kts 173°
2026-05-07 17:10 57.24600 12.30948 15983 ft 355 kts 173°
2026-05-07 17:10 57.22142 12.31605 16630 ft 359 kts 173°
2026-05-07 17:10 57.19659 12.32269 17281 ft 362 kts 173°
2026-05-07 17:11 57.17151 12.32940 17940 ft 366 kts 173°
2026-05-07 17:11 57.14618 12.33617 18569 ft 370 kts 174°
2026-05-07 17:11 57.12095 12.34283 19140 ft 373 kts 174°
2026-05-07 17:11 57.09510 12.34941 19724 ft 377 kts 174°
2026-05-07 17:12 57.06898 12.35584 20321 ft 380 kts 174°
2026-05-07 17:12 57.04263 12.36222 20893 ft 384 kts 174°
2026-05-07 17:12 57.01604 12.36866 21456 ft 387 kts 174°
2026-05-07 17:12 56.98921 12.37518 22012 ft 391 kts 174°
2026-05-07 17:13 56.96216 12.38179 22562 ft 394 kts 174°
2026-05-07 17:13 56.93483 12.38856 23118 ft 398 kts 174°
2026-05-07 17:13 56.90724 12.39550 23670 ft 402 kts 174°
2026-05-07 17:13 56.87945 12.40246 24131 ft 405 kts 174°
2026-05-07 17:14 56.85178 12.40933 24581 ft 408 kts 174°
2026-05-07 17:14 56.82353 12.41629 25031 ft 411 kts 174°
2026-05-07 17:14 56.79507 12.42325 25473 ft 414 kts 174°
2026-05-07 17:14 56.76643 12.43027 25914 ft 417 kts 174°
2026-05-07 17:15 56.73760 12.43736 26362 ft 419 kts 174°
2026-05-07 17:15 56.70871 12.44444 26797 ft 421 kts 174°
2026-05-07 17:15 56.67956 12.45157 27217 ft 424 kts 174°
2026-05-07 17:15 56.65027 12.45869 27623 ft 426 kts 174°
2026-05-07 17:16 56.62119 12.46571 28023 ft 429 kts 173°
2026-05-07 17:16 56.59153 12.47286 28430 ft 431 kts 173°
2026-05-07 17:16 56.56170 12.48006 28825 ft 434 kts 173°
2026-05-07 17:16 56.53167 12.48730 29212 ft 436 kts 173°
2026-05-07 17:17 56.50151 12.49458 29597 ft 439 kts 173°
2026-05-07 17:17 56.47100 12.50195 29982 ft 442 kts 173°
2026-05-07 17:17 56.44060 12.50934 30322 ft 444 kts 172°
2026-05-07 17:17 56.41030 12.52134 30643 ft 448 kts 163°
2026-05-07 17:18 56.38068 12.53906 30957 ft 450 kts 161°
2026-05-07 17:18 56.35128 12.55681 31269 ft 453 kts 162°
2026-05-07 17:18 56.32132 12.57481 31582 ft 455 kts 162°
2026-05-07 17:18 56.29129 12.59281 31972 ft 455 kts 162°
2026-05-07 17:19 56.26124 12.61078 32424 ft 454 kts 162°
2026-05-07 17:19 56.23127 12.62865 32891 ft 454 kts 162°
2026-05-07 17:19 56.20133 12.64650 33331 ft 453 kts 162°
2026-05-07 17:19 56.17145 12.66432 33776 ft 452 kts 161°
2026-05-07 17:20 56.14160 12.68212 34232 ft 451 kts 161°
2026-05-07 17:20 56.11180 12.69980 34619 ft 450 kts 161°
2026-05-07 17:20 56.08249 12.71712 34983 ft 450 kts 162°
2026-05-07 17:20 56.05271 12.73470 35294 ft 451 kts 162°
2026-05-07 17:21 56.02293 12.75229 35609 ft 451 kts 162°
2026-05-07 17:21 55.99315 12.76986 35976 ft 449 kts 162°
2026-05-07 17:21 55.96352 12.78730 36365 ft 448 kts 163°
2026-05-07 17:21 55.93396 12.80463 36745 ft 446 kts 163°
2026-05-07 17:22 55.90454 12.82184 37133 ft 444 kts 163°
2026-05-07 17:22 55.87522 12.83898 37487 ft 443 kts 163°
2026-05-07 17:22 55.84601 12.85605 37823 ft 441 kts 163°
2026-05-07 17:22 55.81730 12.87288 38144 ft 440 kts 163°
2026-05-07 17:23 55.78819 12.88993 38452 ft 440 kts 163°
2026-05-07 17:23 55.75920 12.90688 38756 ft 439 kts 163°
2026-05-07 17:23 55.73018 12.92378 38992 ft 438 kts 163°
2026-05-07 17:23 55.70102 12.94071 39104 ft 439 kts 164°
2026-05-07 17:24 55.64303 12.97422 39127 ft 440 kts 164°
2026-05-07 17:24 55.58474 13.00776 39138 ft 440 kts 164°
2026-05-07 17:25 55.52686 13.04111 39135 ft 441 kts 164°
2026-05-07 17:25 55.46856 13.07461 39131 ft 441 kts 164°
2026-05-07 17:26 55.41023 13.10795 39138 ft 441 kts 164°
2026-05-07 17:26 55.35182 13.14123 39131 ft 441 kts 164°
2026-05-07 17:27 55.29339 13.17447 39138 ft 442 kts 164°
2026-05-07 17:27 55.23529 13.20735 39143 ft 442 kts 164°
2026-05-07 17:28 55.17675 13.24034 39151 ft 442 kts 164°
2026-05-07 17:28 55.11821 13.27334 39139 ft 442 kts 164°
2026-05-07 17:29 55.05967 13.30628 39151 ft 442 kts 164°
2026-05-07 17:29 55.00155 13.33874 39144 ft 441 kts 164°
2026-05-07 17:30 54.94306 13.37131 39148 ft 441 kts 164°
2026-05-07 17:30 54.88468 13.40457 39147 ft 442 kts 163°
2026-05-07 17:31 54.82680 13.44041 39152 ft 442 kts 162°
2026-05-07 17:31 54.76941 13.47668 39150 ft 442 kts 162°
2026-05-07 17:32 54.71153 13.51241 39154 ft 442 kts 162°
2026-05-07 17:32 54.65354 13.54764 39160 ft 442 kts 162°
2026-05-07 17:33 54.59557 13.58278 39151 ft 442 kts 163°
2026-05-07 17:33 54.53759 13.61790 39156 ft 441 kts 163°
2026-05-07 17:34 54.47996 13.65268 39154 ft 444 kts 163°
2026-05-07 17:34 54.45063 13.67038 38924 ft 449 kts 162°
2026-05-07 17:34 54.42103 13.68829 38147 ft 452 kts 162°
2026-05-07 17:35 54.39127 13.70629 37370 ft 454 kts 162°
2026-05-07 17:35 54.36144 13.72430 36624 ft 455 kts 162°
2026-05-07 17:35 54.33157 13.74227 35888 ft 455 kts 161°
2026-05-07 17:35 54.30167 13.76018 35177 ft 455 kts 161°
2026-05-07 17:36 54.27184 13.77793 34597 ft 453 kts 161°
2026-05-07 17:36 54.24221 13.79554 34071 ft 449 kts 161°
2026-05-07 17:36 54.21299 13.81293 33263 ft 441 kts 161°
2026-05-07 17:36 54.18467 13.82979 32438 ft 433 kts 161°
2026-05-07 17:37 54.15652 13.84652 31628 ft 425 kts 161°
2026-05-07 17:37 54.12888 13.86293 30813 ft 416 kts 162°
2026-05-07 17:37 54.10181 13.87900 29924 ft 409 kts 161°
2026-05-07 17:37 54.07520 13.89475 28954 ft 402 kts 161°
2026-05-07 17:38 54.04891 13.91023 27938 ft 398 kts 161°
2026-05-07 17:38 54.02286 13.92550 26967 ft 395 kts 162°
2026-05-07 17:38 53.99626 13.93489 26088 ft 389 kts 178°
2026-05-07 17:38 53.96958 13.93100 25246 ft 383 kts 195°
2026-05-07 17:39 53.94438 13.91710 24382 ft 381 kts 200°
2026-05-07 17:39 53.91937 13.90214 23467 ft 381 kts 200°
2026-05-07 17:39 53.89455 13.88713 22532 ft 377 kts 201°
2026-05-07 17:39 53.87027 13.87241 21656 ft 373 kts 200°
2026-05-07 17:40 53.84597 13.85769 20784 ft 369 kts 201°
2026-05-07 17:40 53.82195 13.84320 19953 ft 364 kts 200°
2026-05-07 17:40 53.79822 13.82891 19136 ft 360 kts 200°
2026-05-07 17:40 53.77481 13.81481 18347 ft 355 kts 200°
2026-05-07 17:41 53.75149 13.80081 17692 ft 355 kts 200°
2026-05-07 17:41 53.72846 13.78707 17384 ft 347 kts 200°
2026-05-07 17:41 53.70594 13.77368 17122 ft 339 kts 200°
2026-05-07 17:41 53.68390 13.76057 16852 ft 332 kts 200°
2026-05-07 17:42 53.66262 13.74791 16588 ft 326 kts 200°
2026-05-07 17:42 53.64134 13.73522 16333 ft 324 kts 201°
2026-05-07 17:42 53.62019 13.72261 16084 ft 322 kts 201°
2026-05-07 17:42 53.59908 13.71007 15820 ft 321 kts 201°
2026-05-07 17:43 53.57810 13.69762 15574 ft 319 kts 201°
2026-05-07 17:43 53.55724 13.68523 15321 ft 318 kts 200°
2026-05-07 17:43 53.53646 13.67289 15067 ft 316 kts 200°
2026-05-07 17:43 53.51580 13.66063 14820 ft 314 kts 200°
2026-05-07 17:44 53.49522 13.64845 14575 ft 313 kts 201°
2026-05-07 17:44 53.47472 13.63636 14333 ft 312 kts 201°
2026-05-07 17:44 53.45462 13.62457 14112 ft 308 kts 201°
2026-05-07 17:44 53.43440 13.61269 14018 ft 307 kts 200°
2026-05-07 17:45 53.41420 13.60090 14027 ft 308 kts 200°
2026-05-07 17:45 53.39400 13.58903 14029 ft 308 kts 200°
2026-05-07 17:45 53.37377 13.57712 14029 ft 308 kts 200°
2026-05-07 17:45 53.35354 13.56520 14028 ft 308 kts 201°
2026-05-07 17:46 53.33297 13.55306 14031 ft 323 kts 201°
2026-05-07 17:46 53.31151 13.54042 14030 ft 330 kts 200°
2026-05-07 17:46 53.28980 13.52768 14028 ft 331 kts 200°
2026-05-07 17:46 53.26832 13.51515 14023 ft 331 kts 200°
2026-05-07 17:47 53.24653 13.50245 14026 ft 332 kts 200°
2026-05-07 17:47 53.22507 13.48996 14022 ft 322 kts 200°
2026-05-07 17:47 53.20389 13.47763 14026 ft 323 kts 200°
2026-05-07 17:47 53.18271 13.46530 14025 ft 322 kts 200°
2026-05-07 17:48 53.16157 13.45299 14021 ft 322 kts 200°
2026-05-07 17:48 53.14045 13.44073 14020 ft 321 kts 200°
2026-05-07 17:48 53.11934 13.42852 14021 ft 322 kts 200°
2026-05-07 17:48 53.09821 13.41628 14021 ft 322 kts 200°
2026-05-07 17:49 53.07706 13.40403 14020 ft 322 kts 200°
2026-05-07 17:49 53.05589 13.39180 14021 ft 322 kts 200°
2026-05-07 17:49 53.03503 13.37976 14020 ft 321 kts 200°
2026-05-07 17:49 53.01394 13.36761 14021 ft 321 kts 200°
2026-05-07 17:50 52.99281 13.35541 14021 ft 322 kts 200°
2026-05-07 17:50 52.97167 13.34321 14017 ft 322 kts 199°
2026-05-07 17:50 52.95054 13.33105 14018 ft 322 kts 199°
2026-05-07 17:50 52.92938 13.31890 14017 ft 321 kts 199°
2026-05-07 17:51 52.90826 13.30679 14018 ft 321 kts 199°
2026-05-07 17:51 52.88711 13.29465 13936 ft 321 kts 199°
2026-05-07 17:51 52.86624 13.28268 13665 ft 314 kts 199°
2026-05-07 17:51 52.84574 13.27096 13391 ft 309 kts 199°
2026-05-07 17:52 52.82543 13.25936 13112 ft 308 kts 199°
2026-05-07 17:52 52.80524 13.24784 12862 ft 306 kts 199°
2026-05-07 17:52 52.78544 13.23656 12532 ft 304 kts 199°
2026-05-07 17:52 52.76550 13.22519 12210 ft 302 kts 199°
2026-05-07 17:53 52.74569 13.21387 11900 ft 300 kts 199°
2026-05-07 17:53 52.72597 13.20263 11597 ft 299 kts 199°
2026-05-07 17:53 52.70636 13.19145 11292 ft 297 kts 199°
2026-05-07 17:53 52.68681 13.18033 10952 ft 296 kts 199°
2026-05-07 17:54 52.66736 13.16929 10588 ft 296 kts 199°
2026-05-07 17:54 52.64793 13.15830 10220 ft 295 kts 199°
2026-05-07 17:54 52.62855 13.14733 9846 ft 294 kts 199°
2026-05-07 17:54 52.60921 13.13640 9438 ft 293 kts 199°
2026-05-07 17:55 52.58992 13.12553 9054 ft 292 kts 199°
2026-05-07 17:55 52.57103 13.11489 8719 ft 290 kts 199°
2026-05-07 17:55 52.55201 13.10415 8400 ft 287 kts 199°
2026-05-07 17:55 52.53323 13.09351 8092 ft 284 kts 199°
2026-05-07 17:56 52.51424 13.08509 7788 ft 282 kts 188°
2026-05-07 17:56 52.49485 13.08109 7461 ft 280 kts 185°
2026-05-07 17:56 52.47550 13.07767 7150 ft 279 kts 185°
2026-05-07 17:56 52.45624 13.07428 6816 ft 278 kts 185°
2026-05-07 17:57 52.43701 13.07086 6472 ft 278 kts 185°
2026-05-07 17:57 52.42429 13.06856 6230 ft 277 kts 185°
2026-05-07 17:57 52.39865 13.06392 5743 ft 277 kts 185°
2026-05-07 17:57 52.37976 13.06048 5388 ft 277 kts 185°
2026-05-07 17:58 52.36061 13.05700 5032 ft 276 kts 185°
2026-05-07 17:58 52.34154 13.05356 4673 ft 276 kts 184°
2026-05-07 17:58 52.32279 13.05684 4305 ft 271 kts 157°
2026-05-07 17:58 52.30740 13.07291 4161 ft 257 kts 137°
2026-05-07 17:59 52.29412 13.09203 3866 ft 252 kts 135°
2026-05-07 17:59 52.28383 13.11382 3507 ft 236 kts 109°
2026-05-07 17:59 52.28011 13.13907 3162 ft 224 kts 97°
2026-05-07 17:59 52.27798 13.16359 3018 ft 214 kts 95°
2026-05-07 18:00 52.27827 13.18737 3020 ft 209 kts 73°
2026-05-07 18:00 52.28320 13.20914 3025 ft 202 kts 67°
2026-05-07 18:00 52.28820 13.22966 3022 ft 187 kts 67°
2026-05-07 18:00 52.29287 13.24897 2988 ft 180 kts 67°
2026-05-07 18:01 52.29742 13.26786 2820 ft 177 kts 67°
2026-05-07 18:01 52.30191 13.28650 2602 ft 176 kts 67°
2026-05-07 18:01 52.30636 13.30505 2369 ft 176 kts 67°
2026-05-07 18:01 52.31122 13.32526 2112 ft 197 kts 68°
2026-05-07 18:02 52.32074 13.36504 1608 ft 175 kts 67°
2026-05-07 18:02 52.32492 13.38257 1375 ft 154 kts 68°
2026-05-07 18:02 52.32858 13.39786 1148 ft 138 kts 68°
2026-05-07 18:03 52.33196 13.41198 926 ft 133 kts 68°
2026-05-07 18:03 52.33540 13.42591 713 ft 131 kts 68°
2026-05-07 18:03 52.33861 13.43991 582 ft 132 kts 69°
2026-05-07 18:03 52.34203 13.45382 408 ft 131 kts 69°
2026-05-07 18:04 52.34533 13.46783 244 ft 133 kts 70°
2026-05-07 18:04 52.34860 13.48154 157 ft 120 kts 70°
2026-05-07 18:04 52.35084 13.49123 154 ft 50 kts 69°
2026-05-07 18:04 52.35127 13.49300 155 ft 17 kts 68°
2026-05-07 18:05 52.35216 13.49667 154 ft 42 kts 68°
2026-05-07 18:05 52.35393 13.50016 156 ft 31 kts 37°
2026-05-07 18:05 52.35438 13.50076 157 ft 0 kts 39°
2026-05-07 18:05 52.35439 13.50077 157 ft 1 kts 39°
2026-05-07 18:06 52.35470 13.50118 157 ft 8 kts 39°
2026-05-07 18:06 52.35529 13.50196 158 ft 15 kts 39°
2026-05-07 18:06 52.35608 13.50339 158 ft 19 kts 66°
2026-05-07 18:06 52.35633 13.50439 158 ft 1 kts 68°
2026-05-07 18:07 52.35640 13.50467 158 ft 4 kts 71°
2026-05-07 18:07 52.35655 13.50536 158 ft 8 kts 69°
2026-05-07 18:07 52.35683 13.50646 158 ft 12 kts 60°
2026-05-07 18:07 52.35716 13.50772 158 ft 12 kts 67°
2026-05-07 18:08 52.35782 13.50821 158 ft 13 kts 339°
2026-05-07 18:08 52.35880 13.50759 159 ft 17 kts 339°
2026-05-07 18:08 52.36008 13.50677 159 ft 23 kts 338°
2026-05-07 18:08 52.36169 13.50578 159 ft 20 kts 333°
2026-05-07 18:09 52.36265 13.50548 159 ft 10 kts 51°
2026-05-07 18:09 52.36288 13.50622 159 ft 7 kts 45°
2026-05-07 18:09 52.36294 13.50654 159 ft 4 kts 75°
2026-05-07 18:09 52.36295 13.50661 159 ft 0 kts 75°